[[{"header":{"parameterUnit":"m.s-1","parameterCategory":1,"la1":30.2992,"la2":30.254,"lo1":-89.0895,"lo2":-89.0443,"dy":0.0025,"dx":0.0025,"nx":19,"ny":19,"refTime":"2026-04-23T21:00:00:Z","depth":0,"parameterNumber":2,"parameterNumberName":"U-component_of_WINDS"},"data":[0,0,0,-2.1128,-2.1131,-2.1286,-2.1287,-2.1474,-2.1475,0,0,0,0,0,0,0,0,0,0,0,-2.1073,-2.1074,-2.1128,-2.1131,-2.1286,-2.1287,-2.1473,-2.1475,0,0,0,0,0,0,0,0,0,0,0,-2.1072,-2.1073,-2.1075,-2.1132,-2.1286,-2.1287,-2.1473,-2.1361,0,0,0,0,0,0,0,0,0,0,-2.1212,-2.1151,-2.1073,-2.1075,-2.1133,-2.1286,-2.1287,-2.1355,-2.1368,-2.1398,0,-2.142,0,-2.145,-2.1487,-2.1487,0,0,0,-2.1139,-2.1141,-2.1191,-2.1075,-2.1134,-2.1286,-2.1218,-2.1362,-2.1376,-2.1414,-2.1423,-2.143,-2.1453,-2.1488,-2.1489,-2.1632,-2.1632,0,0,-2.113,-2.1096,-2.1182,-2.12,-2.1173,-2.1213,-2.1223,-2.1371,-2.1379,-2.1423,-2.1435,-2.1456,-2.1489,-2.149,-2.1632,-2.1632,0,0,0,-2.1101,-2.109,-2.1137,-2.1192,-2.122,-2.1218,-2.1229,-2.1373,-2.1391,-2.1437,-2.1459,-2.149,-2.1492,-2.1632,-2.1632,-2.1613,0,0,0,-2.1096,-2.1072,-2.1132,-2.1113,-2.1217,-2.1298,-2.1227,-2.138,-2.1398,-2.1458,-2.149,-2.1494,-2.1631,-2.1632,-2.1613,-2.1609,0,0,0,-2.1066,-2.1069,-2.1088,-2.1111,-2.1176,-2.1296,-2.1323,-2.1385,-2.1411,-2.1487,-2.1494,-2.1631,-2.1632,-2.1612,-2.1609,-2.1636,0,0,0,-2.1024,-2.1069,-2.1087,-2.1147,-2.1174,-2.1283,-2.1323,-2.1406,-2.1469,-2.1491,-2.1631,-2.1632,-2.1612,-2.1609,-2.1636,-2.1652,-2.1655,0,0,-2.1062,-2.1073,-2.1111,-2.1131,-2.1227,-2.1262,-2.1357,-2.1448,-2.1488,-2.1583,-2.1587,-2.1613,-2.1609,-2.1636,-2.169,-2.1693,0,0,0,-2.1111,-2.1138,-2.1171,-2.1228,-2.1299,-2.1359,-2.1439,-2.1474,-2.1555,-2.1529,-2.1632,-2.1631,-2.1648,-2.1657,-2.166,-2.1677,-2.1635,-2.1635,-2.1635,-2.1114,-2.1162,-2.1228,-2.1295,-2.1351,-2.1434,-2.1484,-2.1545,-2.1578,-2.1601,-2.1629,-2.1655,-2.1665,-2.1667,-2.1684,-2.1643,-2.1642,-2.1642,-2.1642,-2.1173,-2.1218,-2.1261,-2.134,-2.1392,-2.146,-2.1543,-2.1564,-2.1636,-2.1638,-2.1656,-2.1653,-2.1668,-2.1686,-2.1641,-2.1642,-2.1642,-2.1642,-2.1642,-2.1179,-2.1209,-2.125,-2.1339,-2.1403,-2.1471,-2.1538,-2.1583,-2.1626,-2.1644,-2.1678,-2.1679,-2.1684,-2.1657,-2.1658,-2.1658,-2.1658,-2.1658,-2.1658,-2.1169,-2.1215,-2.1265,-2.1344,-2.1388,-2.1451,-2.1537,-2.1582,-2.1644,-2.1672,-2.1672,-2.1702,-2.1661,-2.1648,-2.1659,-2.1659,-2.1659,-2.1659,-2.1659,-2.1208,-2.1207,-2.1283,-2.1327,-2.1424,-2.1485,-2.1543,-2.1631,-2.1676,-2.1707,-2.1736,-2.1697,-2.1712,-2.1711,-2.1701,-2.1725,-2.1725,-2.1725,-2.1725,-2.1212,-2.1224,-2.1313,-2.138,-2.1451,-2.1511,-2.1598,-2.1666,-2.1737,-2.1768,-2.1772,-2.1763,-2.176,-2.1777,-2.1774,-2.1765,-2.1805,-2.1805,-2.1805,-2.1239,-2.126,-2.1324,-2.1391,-2.1472,-2.154,-2.1624,-2.1701,-2.1781,-2.1809,-2.1793,-2.179,-2.1777,-2.177,-2.1795,-2.1789,-2.1774,0,0]},{"header":{"parameterUnit":"m.s-1","parameterCategory":1,"la1":30.2992,"la2":30.254,"lo1":-89.0895,"lo2":-89.0443,"dy":0.0025,"dx":0.0025,"nx":19,"ny":19,"refTime":"2026-04-23T21:00:00:Z","depth":0,"parameterNumber":3,"parameterNumberName":"V-component_of_WINDS"},"data":[0,0,0,3.6998,3.6998,3.7016,3.7016,3.7049,3.7049,0,0,0,0,0,0,0,0,0,0,0,3.6999,3.6999,3.6998,3.6998,3.7016,3.7016,3.7049,3.7049,0,0,0,0,0,0,0,0,0,0,0,3.6999,3.6999,3.7,3.6998,3.7016,3.7016,3.7048,3.7031,0,0,0,0,0,0,0,0,0,0,3.7013,3.702,3.6999,3.7,3.6998,3.7016,3.7016,3.703,3.7033,3.7045,0,3.7058,0,3.7054,3.7052,3.7052,0,0,0,3.6993,3.7018,3.7017,3.7,3.6999,3.7016,3.7006,3.7031,3.7034,3.7048,3.7059,3.706,3.7055,3.7052,3.7052,3.7143,3.7143,0,0,3.6992,3.7005,3.7016,3.7019,3.7017,3.7006,3.7007,3.7033,3.7045,3.7059,3.706,3.7055,3.7052,3.7053,3.7142,3.7143,0,0,0,3.6993,3.7005,3.7003,3.7018,3.7021,3.7007,3.7008,3.7044,3.7042,3.7061,3.7056,3.7053,3.7053,3.7141,3.7142,3.7187,0,0,0,3.6992,3.7005,3.7003,3.7011,3.702,3.7033,3.7019,3.7041,3.7043,3.7056,3.7053,3.7054,3.714,3.7142,3.7184,3.7205,0,0,0,3.6995,3.7005,3.701,3.7012,3.702,3.7032,3.7031,3.7041,3.704,3.7052,3.7054,3.714,3.7142,3.7181,3.7201,3.7232,0,0,0,3.7003,3.7049,3.7011,3.7062,3.702,3.706,3.7031,3.706,3.7075,3.7053,3.7141,3.7142,3.7181,3.7198,3.7229,3.726,3.7274,0,0,3.7069,3.7058,3.7087,3.7053,3.7103,3.7056,3.7112,3.7114,3.7103,3.713,3.7132,3.7185,3.7201,3.7231,3.7351,3.7362,0,0,0,3.7112,3.7133,3.7143,3.7158,3.7161,3.7165,3.7157,3.7158,3.718,3.712,3.7205,3.7214,3.7231,3.7245,3.7255,3.7269,3.7149,3.7149,3.7149,3.7223,3.7207,3.7253,3.724,3.7256,3.7247,3.7258,3.7257,3.7236,3.7257,3.7264,3.7339,3.7356,3.7363,3.7378,3.728,3.728,3.728,3.7281,3.7318,3.7344,3.7316,3.7351,3.7334,3.7363,3.7357,3.7341,3.7366,3.7332,3.7346,3.731,3.7376,3.7388,3.7284,3.7283,3.7283,3.7282,3.7282,3.7388,3.7397,3.7398,3.7419,3.7437,3.7422,3.7447,3.7431,3.7416,3.7431,3.7436,3.7435,3.7432,3.7435,3.7435,3.7435,3.7435,3.7436,3.7436,3.7459,3.7459,3.7482,3.749,3.7497,3.7506,3.7499,3.7506,3.751,3.7496,3.7496,3.7473,3.7386,3.7363,3.744,3.7439,3.7438,3.7438,3.7438,3.7559,3.7534,3.757,3.7578,3.7586,3.7605,3.7584,3.7601,3.7605,3.7617,3.7592,3.753,3.7517,3.751,3.7491,3.7596,3.7596,3.7596,3.7596,3.7617,3.761,3.7642,3.7657,3.7669,3.7654,3.7695,3.769,3.7681,3.7682,3.7665,3.764,3.7632,3.7624,3.7613,3.7596,3.7725,3.7725,3.7725,3.7677,3.767,3.7708,3.7699,3.7704,3.7709,3.7746,3.7764,3.7748,3.773,3.7683,3.7677,3.7636,3.7623,3.7602,3.7587,3.7554,0,0]}]]